Location: Estes Park
(40.3770°N, 105.5210°W)
Time: 20:01:06
(UTC-07:00)

Vanguard 1 - Visible Passes

Search period start: 21 February 2018 00:00
Search period end: 03 March 2018 00:00
Orbit: 650 x 3833 km, 34.2° (Epoch: 21 February)

Date Brightness Start Highest point End Pass type
(mag) Time Alt. Az. Time Alt. Az. Time Alt. Az.
21 Feb 11.2 19:23:43 10° W 19:28:26 24° SSW 19:31:11 15° SSE visible
22 Feb 11.5 19:45:25 10° WSW 19:49:00 17° SSW 19:51:16 13° S visible
23 Feb 11.9 20:08:12 10° SW 20:09:30 11° SW 20:10:42 10° SSW visible
25 Feb 11.7 18:25:29 10° W 18:31:56 28° SSW 18:36:22 10° SSE visible
26 Feb 11.9 18:47:15 10° W 18:52:25 20° SW 18:56:17 10° S visible
27 Feb 12.2 19:09:38 10° WSW 19:12:48 13° SW 19:15:27 10° SSW visible
